Location: Deuil
(48.9767°N, 2.3272°E)
Time: 16:19:20
(UTC+00:00)

N. Korean satellite - Pass Details

Date: 31 January 2022
Orbit: 437 x 477 km, 97.3° (Epoch: 27 May)

Event Time Altitude Azimuth Distance (km) Brightness Sun altitude
Rises 06:24:52 0° 357° (N) 2,614 10.1 -9.7°
Reaches altitude 10° 06:27:34 10° 336° (NNW) 1,722 9.0 -9.3°
Maximum altitude 06:29:52 16° 298° (WNW) 1,382 8.2 -8.9°
Drops below altitude 10° 06:32:09 10° 259° (W) 1,706 8.8 -8.6°
Sets 06:34:49 0° 237° (WSW) 2,575 9.9 -8.1°
